Regional Weather Roundup
Issued by NWS Green Bay, WI

Home | Current Version | Previous Version | Graphics & Text | Print | Product List | Glossary Off
Versions: 1 2 3 4 5 6 7 8 9 10 11 12 13 14 15 16 17 18 19 20 21 22 23 24 25 26 27 28 29 30 31 32 33 34 35 36 37 38 39 40 41 42 43 44 45 46 47 48 49 50

000
ASUS43 KGRB 281600
RWRGRB

NORTH-CENTRAL AND NORTHEAST WISCONSIN REGIONAL WEATHER ROUNDUP
NATIONAL WEATHER SERVICE GREEN BAY WI
1100 AM CDT FRI AUG 28 2015

WIZ005-009-010>012-018-019-281700-
NORTH CENTRAL WISCONSIN

CITY           SKY/WX    TMP DP  RH WIND       PRES   REMARKS
IRONWOOD       PTSUNNY   70  63  78 SW10G16   29.99R
MANITOWISH WTR NOT AVBL
ARBOR VITAE    NOT AVBL
EAGLE RIVER    NOT AVBL
LAND O LAKES   NOT AVBL
RHINELANDER    PTSUNNY   67  59  75 SW9       30.09R
PHILLIPS       CLOUDY    66  61  83 SW13      30.06S
ANTIGO         NOT AVBL
TOMAHAWK       NOT AVBL
MERRILL        PTSUNNY   68  61  79 SW10G16   30.09F
$$

WIZ013-073-281700-
NORTHEAST WISCONSIN

CITY           SKY/WX    TMP DP  RH WIND       PRES   REMARKS
IRON MOUNTAIN  PTSUNNY   70  60  70 S10       30.05F
MARINETTE      PTSUNNY   68  57  68 SW13      30.09S
$$

WIZ017-030-035>037-045-281700-
CENTRAL WISCONSIN

CITY           SKY/WX    TMP DP  RH WIND       PRES   REMARKS
MEDFORD        NOT AVBL
WAUSAU         CLOUDY    66  59  78 SW7       30.09S
MOSINEE        PTSUNNY   64  61  88 SW7       30.11F
MARSHFIELD     CLOUDY    65  58  78 SW6       30.10S
WISC RAPIDS    CLOUDY    65  58  78 SW5       30.12R
STEVENS POINT  NOT AVBL
WAUPACA        NOT AVBL
SHAWANO        NOT AVBL
CLINTONVILLE   CLOUDY    68  59  73 SW8       30.11S
WAUTOMA        NOT AVBL
$$

WIZ038-039-048-051-281700-
FOX VALLEY

CITY           SKY/WX    TMP DP  RH WIND       PRES   REMARKS
NWS GREEN BAY  PTSUNNY   70  60  70 SW9       30.12S
APPLETON       NOT AVBL
OSHKOSH        CLOUDY    67  59  75 S8        30.11F
FOND DU LAC    CLOUDY    70  60  70 S10       30.12F
$$

WIZ022-050-052-281700-
EAST CENTRAL WISCONSIN

CITY           SKY/WX    TMP DP  RH WIND       PRES   REMARKS
EPHRAIM        PTSUNNY   70  59  67 SW8       30.10S
STURGEON BAY   PTSUNNY   70  57  64 SW10      30.14S
MANITOWOC      NOT AVBL
SHEBOYGAN      CLOUDY    69  60  73 S7        30.13S
$$

LMZ563-521-522-541>543-281700-
LAKESHORE

STATION/POSITION TIME  TEMP    WIND        PRES    VSBY  WAVE
                       AIR SEA DIR/SP/G                  HT/PER
                 (UTC) (F)     (DEG/KT/KT) (MB)    (MI)  (FT/S)
SHEBOYGAN LKSHOR 1500   56     160/ 12/ 12 1020.8R
KEWAUNEE LKSHORE 1500   50     170/  9/ 10 1019.1R
NORTHPORT PIER   1500   65     140/  5/  9 1019.3S
N MID LAKE BUOY  1450   62 64  200/ 14/ 16 1019.3R         3/ 5
S GREEN BAY BUOY 1500   64     200/ 12/ 14 1020.8R
SISTER BAY LKSHO 1504   71     240/ 13/ 15   N/A
CHAMBERS ISLAND  1500   65     170/  5/ 11 1019.3S
MENOMINEE LKSHOR 1500   65     180/  9/ 10 1017.9F
$$


USA.gov is the U.S. government's official web portal to all federal, state and local government web resources and services.